Location: Unspecified
(45.3712°N, 0.6436°E)
Time: 06:36:07
(UTC+02:00)

ISS - Pass Details

Date: 20 July 2018
Orbit: 402 x 408 km, 51.6° (Epoch: 18 July)

Event Time Altitude Azimuth Distance (km) Brightness Sun altitude
Rises 02:11:59 0° 285° (WNW) 2,326 0.2 -23.9°
Reaches altitude 10° 02:14:17 10° 298° (WNW) 1,467 -0.7 -23.9°
Maximum altitude 02:17:08 26° 358° (N) 841 -1.5 -23.9°
Drops below altitude 10° 02:19:58 10° 58° (ENE) 1,470 -0.6 -23.8°
Sets 02:22:16 0° 71° (ENE) 2,331 0.3 -23.8°
